Weather History for El Dorado, AR

Change the Weather History Date:

Friday, March 8, 2013

  Actual Average Record
Temperature  
Mean Temperature 51 °F 54 °F  
Max Temperature 69 °F 65 °F 84 °F (1916)
Min Temperature 33 °F 42 °F 19 °F (1943)
Degree Days  
Heating Degree Days 14 12  
Month to date heating degree days 149 102  
Since 1 July heating degree days 2189 2330  
Cooling Degree Days 0 0  
Month to date cooling degree days 0 0  
Year to date cooling degree days 6 6  
Growing Degree Days 2 (Base 50)    
Moisture  
Dew Point 34 °F    
Average Humidity 62    
Maximum Humidity 100    
Minimum Humidity 23    
Precipitation  
Precipitation T in 0.17 in 4.21 in (1976)
Month to date precipitation T 1.32  
Year to date precipitation 6.66 10.41  
Snow  
Snow 0.00 in - - ()
Month to date snowfall 0.0  
Since 1 July snowfall 0.1  
Snow Depth 0.00 in    
Sea Level Pressure  
Sea Level Pressure 30.23 in    
Wind  
Wind Speed 4 mph (East)    
Max Wind Speed 14 mph    
Max Gust Speed 17 mph    
Visibility 10 miles    
Events      
T = Trace of Precipitation, MM = Missing Value Source: NWS Daily Summary

Daily Weather History Graph

Daily Weather History Graph

Search for Another Location

Airport:

Trip Planner

Search our weather history database for the weather conditions in past years. The results will help you decide how hot, cold, wet, or windy it might be!

Date:

Astronomy

Mar. 08, 2013 Rise Set
Actual Time 6:30 AM CST 6:13 PM CST
Civil Twilight 6:05 AM CST 6:38 PM CST
Nautical Twilight 5:36 AM CST 7:07 PM CST
Astronomical Twilight 5:08 AM CST 7:36 PM CST
Moon 4:06 AM CST (3/8) 3:16 PM CST (3/8)
Length of Visible Light 12h 33m
Length of Day
11h 43m
Waning Crescent, 11% of the Moon is Illuminated
Mar 8
Waning Crescent
Mar 11
New
Mar 19
First Quarter
Mar 27
Full
Apr 2
Last Quarter

Hourly Weather History & Observations

Time (CST) Temp. Windchill Dew Point Humidity Pressure Visibility Wind Dir Wind Speed Gust Speed Precip Events Conditions
12:53 AM 39.9 °F - 34.0 °F 79% 30.25 in 10.0 mi Calm Calm - N/A   Clear
1:53 AM 37.9 °F - 34.0 °F 86% 30.25 in 10.0 mi Calm Calm - N/A   Clear
2:53 AM 36.0 °F - 33.1 °F 89% 30.25 in 10.0 mi Calm Calm - N/A   Clear
3:53 AM 37.9 °F - 33.1 °F 83% 30.24 in 10.0 mi Calm Calm - N/A   Clear
4:53 AM 36.0 °F - 33.1 °F 89% 30.26 in 10.0 mi Calm Calm - N/A   Clear
5:53 AM 34.0 °F - 33.1 °F 96% 30.29 in 10.0 mi Calm Calm - N/A   Clear
6:53 AM 36.0 °F - 32.0 °F 86% 30.30 in 10.0 mi Calm Calm - N/A   Clear
7:53 AM 39.9 °F 36.7 °F 35.1 °F 83% 30.31 in 9.0 mi ENE 4.6 mph - N/A   Clear
8:53 AM 46.0 °F 44.8 °F 36.0 °F 68% 30.32 in 10.0 mi ENE 3.5 mph - N/A   Clear
9:53 AM 55.0 °F - 35.1 °F 47% 30.32 in 10.0 mi East 5.8 mph - N/A   Clear
10:53 AM 59.0 °F - 34.0 °F 39% 30.32 in 10.0 mi ESE 5.8 mph - N/A   Clear
11:53 AM 63.0 °F - 33.1 °F 33% 30.29 in 10.0 mi East 6.9 mph - N/A   Clear
12:53 PM 66.0 °F - 34.0 °F 30% 30.26 in 10.0 mi East 6.9 mph - N/A   Clear
1:53 PM 66.0 °F - 33.1 °F 29% 30.22 in 10.0 mi ENE 6.9 mph - N/A   Clear
2:53 PM 68.0 °F - 33.1 °F 27% 30.19 in 10.0 mi East 5.8 mph - N/A   Clear
3:53 PM 69.1 °F - 30.9 °F 24% 30.17 in 10.0 mi ESE 10.4 mph - N/A   Clear
4:53 PM 66.9 °F - 30.9 °F 26% 30.14 in 10.0 mi East 10.4 mph - N/A   Clear
5:53 PM 64.0 °F - 33.1 °F 31% 30.16 in 10.0 mi East 5.8 mph - N/A   Clear
6:53 PM 61.0 °F - 34.0 °F 36% 30.17 in 10.0 mi East 4.6 mph - N/A   Clear
7:53 PM 60.1 °F - 36.0 °F 41% 30.17 in 10.0 mi ESE 4.6 mph - N/A   Clear
8:53 PM 60.1 °F - 37.0 °F 42% 30.17 in 10.0 mi ESE 5.8 mph - N/A   Partly Cloudy
9:53 PM 59.0 °F - 39.0 °F 48% 30.15 in 10.0 mi East 6.9 mph - N/A   Mostly Cloudy
10:53 PM 59.0 °F - 37.0 °F 44% 30.12 in 10.0 mi ESE 6.9 mph - 0.00 in   Mostly Cloudy
11:53 PM 57.0 °F - 39.0 °F 51% 30.10 in 10.0 mi East 3.5 mph - 0.00 in   Overcast